Location: Chevoux
(46.3801°N, 4.9476°E)
Time: 22:57:33
(UTC+00:00)

Cosmos 1553 Rocket - Pass Details

Date: 28 January 2021
Orbit: 941 x 1008 km, 82.9° (Epoch: 04 March)

Event Time Altitude Azimuth Distance (km) Brightness Sun altitude
Rises 17:33:29 0° 356° (N) 3,747 6.9 -9.6°
Reaches altitude 10° 17:36:14 10° 4° (N) 2,789 6.2 -10.1°
Maximum altitude 17:42:13 40° 73° (ENE) 1,439 4.4 -11.1°
Drops below altitude 10° 17:48:05 10° 141° (SE) 2,738 6.1 -12.1°
Sets 17:50:45 0° 149° (SSE) 3,672 6.8 -12.5°
